When you browse on this site, cookies collect data to enhance your experience and personalize the content and advertising you see.
Visit our Privacy Policy to learn more. By continuing to use the site, you agree to this use of cookies and data.
  • In Spain
  • List of Countries
  • For 7 days
  • Water Temperature
  • Weather Map
  • Weather Widgets
  • user-avatar
    Login

    Hourly Weather Totonicapán

    Today, 18 February, Tuesday

    Time Temperature Precipitation Wind Pressure Humidity
    00:00 +9°C° 0 mm 1 mps 551 mmHg 80%
    01:00 +9°C° 0 mm 1 mps 551 mmHg 75%
    02:00 +8°C° 0 mm 1 mps 551 mmHg 70%
    03:00 +8°C° 0 mm 1 mps 551 mmHg 65%
    04:00 +8°C° 0 mm 1 mps 551 mmHg 63%
    05:00 +7°C° 0 mm 1 mps 550 mmHg 61%
    06:00 +7°C° 0 mm 1 mps 550 mmHg 58%
    07:00 +10°C° 0 mm 1 mps 553 mmHg 51%
    08:00 +14°C° 0 mm 1 mps 555 mmHg 44%
    09:00 +18°C° 0 mm 1 mps 557 mmHg 36%
    10:00 +19°C° 0 mm 1 mps 557 mmHg 33%
    11:00 +20°C° 0 mm 2 mps 558 mmHg 29%
    12:00 +22°C° 0 mm 3 mps 558 mmHg 26%
    13:00 +22°C° 0 mm 3 mps 558 mmHg 28%
    14:00 +21°C° 0 mm 3 mps 557 mmHg 29%
    15:00 +21°C° 0 mm 3 mps 557 mmHg 31%
    16:00 +19°C° 0 mm 3 mps 555 mmHg 43%
    17:00 +16°C° 0 mm 2 mps 554 mmHg 54%
    18:00 +13°C° 0 mm 1 mps 553 mmHg 66%
    19:00 +12°C° 0 mm 1 mps 553 mmHg 71%
    20:00 +11°C° 0 mm 1 mps 553 mmHg 76%
    21:00 +10°C° 0 mm 1 mps 553 mmHg 82%
    22:00 +10°C° 0 mm 1 mps 553 mmHg 84%
    23:00 +10°C° 0 mm 1 mps 553 mmHg 87%

    Tomorrow, 19 February, Wednesday

    Time Temperature Precipitation Wind Pressure Humidity
    00:00 +10°C° 0 mm 1 mps 553 mmHg 89%
    01:00 +10°C° 0 mm 1 mps 553 mmHg 86%
    02:00 +9°C° 0 mm 1 mps 552 mmHg 84%
    03:00 +9°C° 0 mm 1 mps 552 mmHg 81%
    04:00 +9°C° 0 mm 1 mps 552 mmHg 81%
    05:00 +8°C° 0 mm 1 mps 552 mmHg 80%
    06:00 +8°C° 0 mm 1 mps 552 mmHg 80%
    07:00 +11°C° 0 mm 1 mps 554 mmHg 69%
    08:00 +14°C° 0 mm 1 mps 556 mmHg 59%
    09:00 +18°C° 0 mm 1 mps 558 mmHg 48%
    10:00 +19°C° 0 mm 1 mps 558 mmHg 42%
    11:00 +20°C° 0 mm 2 mps 559 mmHg 36%
    12:00 +21°C° 0 mm 3 mps 559 mmHg 31%
    13:00 +21°C° 0 mm 3 mps 559 mmHg 32%
    14:00 +21°C° 0 mm 3 mps 558 mmHg 34%
    15:00 +21°C° 0 mm 3 mps 558 mmHg 35%
    16:00 +19°C° 0 mm 3 mps 556 mmHg 48%
    17:00 +16°C° 0 mm 2 mps 555 mmHg 60%
    18:00 +14°C° 0 mm 2 mps 554 mmHg 72%
    19:00 +13°C° 0 mm 1 mps 554 mmHg 78%
    20:00 +12°C° 0 mm 1 mps 554 mmHg 84%
    21:00 +10°C° 0 mm 1 mps 554 mmHg 90%
    22:00 +10°C° 0 mm 1 mps 554 mmHg 90%
    23:00 +10°C° 0 mm 1 mps 554 mmHg 89%

    Day after tomorrow, 20 February, Thursday

    Time Temperature Precipitation Wind Pressure Humidity
    00:00 +10°C° 0 mm 1 mps 554 mmHg 89%
    01:00 +10°C° 0 mm 1 mps 553 mmHg 88%
    02:00 +10°C° 0 mm 1 mps 553 mmHg 87%
    03:00 +10°C° 0 mm 1 mps 553 mmHg 86%
    04:00 +9°C° 0 mm 1 mps 552 mmHg 83%
    05:00 +8°C° 0 mm 1 mps 552 mmHg 80%
    06:00 +8°C° 0 mm 1 mps 552 mmHg 77%
    07:00 +11°C° 0 mm 1 mps 554 mmHg 63%
    08:00 +14°C° 0 mm 1 mps 556 mmHg 49%
    09:00 +18°C° 0 mm 1 mps 558 mmHg 35%
    10:00 +19°C° 0 mm 1 mps 559 mmHg 33%
    11:00 +20°C° 0 mm 2 mps 559 mmHg 31%
    12:00 +21°C° 0 mm 2 mps 560 mmHg 29%
    13:00 +21°C° 0 mm 3 mps 559 mmHg 31%
    14:00 +21°C° 0 mm 3 mps 558 mmHg 33%
    15:00 +21°C° 0 mm 3 mps 558 mmHg 35%
    16:00 +19°C° 0 mm 3 mps 557 mmHg 47%
    17:00 +16°C° 0 mm 2 mps 556 mmHg 58%
    18:00 +14°C° 0 mm 1 mps 555 mmHg 70%
    19:00 +13°C° 0 mm 1 mps 555 mmHg 77%
    20:00 +11°C° 0 mm 1 mps 554 mmHg 83%
    21:00 +9°C° 0 mm 2 mps 554 mmHg 90%
    22:00 +9°C° 0 mm 2 mps 554 mmHg 89%
    23:00 +9°C° 0 mm 2 mps 554 mmHg 88%

    21 February, Friday

    Time Temperature Precipitation Wind Pressure Humidity
    00:00 +9°C° 0 mm 2 mps 554 mmHg 86%
    07:00 +9°C° 0 mm 2 mps 555 mmHg 75%
    08:00 +12°C° 0 mm 2 mps 556 mmHg 66%
    09:00 +14°C° 0 mm 3 mps 558 mmHg 56%
    10:00 +16°C° 0 mm 3 mps 559 mmHg 49%
    11:00 +18°C° 0 mm 3 mps 559 mmHg 42%
    12:00 +20°C° 0 mm 3 mps 560 mmHg 35%
    13:00 +20°C° 0 mm 3 mps 559 mmHg 36%
    14:00 +20°C° 0 mm 3 mps 559 mmHg 36%
    15:00 +19°C° 0 mm 3 mps 558 mmHg 36%
    16:00 +17°C° 0 mm 3 mps 557 mmHg 46%
    17:00 +15°C° 0 mm 2 mps 556 mmHg 57%
    18:00 +12°C° 0 mm 2 mps 555 mmHg 68%
    19:00 +10°C° 0 mm 2 mps 555 mmHg 73%
    20:00 +9°C° 0 mm 2 mps 554 mmHg 78%
    21:00 +7°C° 0 mm 2 mps 554 mmHg 83%
    22:00 +7°C° 0 mm 2 mps 554 mmHg 83%
    23:00 +7°C° 0 mm 2 mps 554 mmHg 82%

    22 February, Saturday

    Time Temperature Precipitation Wind Pressure Humidity
    00:00 +7°C° 0 mm 2 mps 554 mmHg 82%
    01:00 +7°C° 0 mm 2 mps 554 mmHg 83%
    02:00 +7°C° 0 mm 2 mps 553 mmHg 85%
    03:00 +7°C° 0 mm 2 mps 553 mmHg 86%
    04:00 +7°C° 0 mm 2 mps 553 mmHg 87%
    05:00 +7°C° 0 mm 2 mps 553 mmHg 87%
    06:00 +7°C° 0 mm 2 mps 554 mmHg 88%
    07:00 +9°C° 0 mm 2 mps 555 mmHg 78%
    08:00 +12°C° 0 mm 2 mps 556 mmHg 68%
    09:00 +14°C° 0 mm 2 mps 558 mmHg 59%
    10:00 +16°C° 0 mm 2 mps 559 mmHg 51%
    11:00 +18°C° 0 mm 2 mps 559 mmHg 44%
    12:00 +20°C° 0 mm 2 mps 560 mmHg 36%
    13:00 +20°C° 0 mm 3 mps 559 mmHg 39%
    14:00 +19°C° 0 mm 3 mps 559 mmHg 41%
    15:00 +19°C° 0 mm 4 mps 558 mmHg 43%
    16:00 +17°C° 0 mm 3 mps 557 mmHg 54%
    17:00 +15°C° 0 mm 2 mps 556 mmHg 65%
    18:00 +13°C° 0 mm 2 mps 555 mmHg 76%
    19:00 +10°C° 0 mm 2 mps 555 mmHg 81%
    20:00 +9°C° 0 mm 2 mps 555 mmHg 86%
    21:00 +8°C° 0 mm 2 mps 555 mmHg 92%
    22:00 +8°C° 0 mm 2 mps 554 mmHg 90%
    23:00 +8°C° 0 mm 2 mps 554 mmHg 88%

    23 February, Sunday

    Time Temperature Precipitation Wind Pressure Humidity
    00:00 +7°C° 0 mm 2 mps 554 mmHg 87%
    01:00 +7°C° 0 mm 2 mps 553 mmHg 86%
    02:00 +8°C° 0 mm 1 mps 553 mmHg 86%
    03:00 +7°C° 0 mm 1 mps 552 mmHg 86%
    04:00 +7°C° 0 mm 1 mps 552 mmHg 85%
    05:00 +7°C° 0 mm 1 mps 552 mmHg 84%
    06:00 +7°C° 0 mm 1 mps 553 mmHg 83%
    07:00 +10°C° 0 mm 1 mps 555 mmHg 72%
    08:00 +13°C° 0 mm 1 mps 556 mmHg 62%
    09:00 +16°C° 0 mm 1 mps 558 mmHg 51%
    10:00 +19°C° 0 mm 1 mps 559 mmHg 45%
    11:00 +19°C° 0 mm 2 mps 559 mmHg 40%
    12:00 +21°C° 0 mm 2 mps 560 mmHg 34%
    13:00 +21°C° 0 mm 3 mps 559 mmHg 38%
    14:00 +20°C° 0 mm 3 mps 558 mmHg 42%
    15:00 +19°C° 0 mm 3 mps 557 mmHg 45%
    16:00 +17°C° 0 mm 2 mps 556 mmHg 54%
    17:00 +15°C° 0 mm 2 mps 555 mmHg 63%
    18:00 +13°C° 0 mm 1 mps 554 mmHg 72%
    19:00 +12°C° 0 mm 1 mps 554 mmHg 76%
    20:00 +11°C° 0 mm 1 mps 553 mmHg 79%
    21:00 +10°C° 0 mm 1 mps 553 mmHg 83%
    22:00 +9°C° 0 mm 1 mps 553 mmHg 82%
    23:00 +9°C° 0 mm 1 mps 553 mmHg 82%
    Show more